Regional Weather Roundup
Issued by NWS State College, PA

Home | Current Version | Previous Version | Text Only | Print | Product List | Glossary Off
Versions: 1 2 3 4 5 6 7 8 9 10 11 12 13 14 15 16 17 18 19 20 21 22 23 24 25 26 27 28 29 30 31 32 33 34 35 36 37 38 39 40 41 42 43 44 45 46 47 48 49 50

000
ASUS41 KCTP 231903
RWRCTP

REGIONAL WEATHER ROUNDUP
NATIONAL WEATHER SERVICE STATE COLLEGE PA
200 PM EST MON JAN 23 2017

Note: "fair" indicates few or no clouds below 12,000 feet with no
significant weather and/or obstructions to visibility.

* = STATION THAT DOES NOT REPORT PRECIPITATION /E.G. RAIN...SNOW...ETC/
    THUNDER OR FOG.

PAZ002>004-007>009-013>016-020>023-029>032-232000-
WESTERN PENNSYLVANIA

CITY           SKY/WX    TMP DP  RH WIND       PRES   REMARKS
ERIE           MOSUNNY   46  39  76 NE17G26   29.59F
MEADVILLE      CLOUDY    51  39  63 E9        29.54F
FRANKLIN*        N/A     46  37  71 E16G22    29.55F
NEW CASTLE     LGT RAIN  45  41  86 E8G22     29.56S
BEAVER COUNTY  RAIN      41  39  93 E6        29.55R
BUTLER*        CLOUDY    41  37  87 E13       29.57S
PITTSBURGH INT LGT RAIN  42  41  96 NE10      29.53R
PITTSBURGH     RAIN      41  37  86 NE8       29.51S FOG
INDIANA*       CLOUDY    39  37  93 E10       29.55S FOG
LATROBE        LGT RAIN  41  39  93 NE12G23   29.52F FOG
WASHINGTON CO* CLOUDY    43  39  87 NE9       29.50F
$$

PAZ004>006-010>012-017>019-024>028-033>037-041-042-045-046-049>053-232000-
CENTRAL PENNSYLVANIA

CITY           SKY/WX    TMP DP  RH WIND       PRES   REMARKS
BRADFORD       LGT RAIN  43  38  82 E9G18     29.57F
DUBOIS         LGT RAIN  41  36  82 E12       29.53S
CLEARFIELD     LGT RAIN  39  38  96 NE12      29.55S
JOHNSTOWN      RAIN      36  35  96 E10G18    29.48R FOG
ALTOONA        LGT RAIN  38  38 100 NE10      29.52S
STATE COLLEGE  NOT AVBL
WILLIAMSPORT   CLOUDY    42  33  70 NE7       29.62F
SELINSGROVE    LGT RAIN  40  32  73 NE17G23   29.61F
FT INDIANTOWN  LGT RAIN  37  37 100 NE13G23   29.56F
CAPITAL CITY   LGT RAIN  39  33  79 NE17G25   29.55F
HARRISBURG     LGT RAIN  39  35  86 E16G22    29.55F FOG
YORK           LGT RAIN  37  35  92 E16G32    29.53R
$$

PAZ038>040-043-044-047-048-054-055-060>062-067>071-232000-
EASTERN PENNSYLVANIA

CITY           SKY/WX    TMP DP  RH WIND       PRES   REMARKS
SCRANTON       CLOUDY    37  28  70 E15G26    29.65F
MOUNT POCONO   FRZ RAIN  30  26  85 E26G38    29.60F
ALLENTOWN      LGT RAIN  39  30  70 E25G31    29.63F
QUAKERTOWN*    CLOUDY    37  32  81 NE15G23   29.61F
READING        LGT RAIN  38  35  89 E10G23    29.57F
LANCASTER      LGT RAIN  37  35  92 E23G36    29.53F
COATESVILLE    LGT RAIN  36  34  93 NE20G36   29.51F
POTTSTOWN      RAIN      36  35  96 NE25G32   29.59F FOG
BLUE BELL      CLOUDY    36  34  93 NE18G28   29.57F
DOYLESTOWN     LGT RAIN  38  33  82 NE14G28   29.60F
WILLOW GROVE   NOT AVBL
NORTH PHILA    LGT RAIN  39  36  89 NE28G39   29.60F FOG
PHILADELPHIA   LGT RAIN  39  36  89 NE24G43   29.55F FOG
$$




USA.gov is the U.S. government's official web portal to all federal, state and local government web resources and services.